www.pogodaiklimat.ru

Погода и климат >> Архив погоды >> Норвегия >> Конгсёйа


ПОГОДА на Конгсёйа

  • Прогноз погоды на Конгсёйа
  • Монитор погоды на Конгсёйа

АРХИВ ПОГОДЫ на Конгсёйа

Время (UTC), дата Ветер
(напр.,м/с)
 
Видим.   Явления Облачность Т
(С)
Тd
(С)
f
(%)
Тe
(С)
Тes
(С)
Комфортность P
(гПа)
Po
(гПа)
Тmin
(С)
Tmax
(С)
R
(мм)
R24
(мм)
S
(см)
10 15.01 В 7
{7}
н/о н/о -12.3 -14.3 85 -22 -22 1001.4 999.7
11 15.01 СВ 6
{7}
н/о н/о -12.4 -14.6 84 -21 -21 1001.4 999.8
12 15.01 СВ 5
{11}
н/о н/о -12.7 -15.3 81 -21 -21 1001.4 999.7
14 15.01 СВ 7
{8}
н/о н/о -13.5 -16.3 79 -23 -23 1001.3 999.6
13 15.01 СВ 7
{8}
н/о н/о -12.9 -15.9 78 -23 -23 1001.3 999.7
15 15.01 СВ 6
{8}
н/о н/о -14.0 -16.8 79 -23 -23 1001.4 999.8
16 15.01 В 8
{9}
н/о н/о -13.7 -16.1 82 -24 -24 1001.1 999.5
17 15.01 СВ 9
{10}
н/о н/о -13.9 -16.3 82 -25 -25 1000.8 999.2
18 15.01 СВ 9
{10}
н/о н/о -13.7 -16.3 81 -25 -25 1000.6 999.0 -14.3 -12.2
20 15.01 СВ 9
{11}
н/о н/о -13.5 -16.1 81 -24 -24 1000.6 999.0
21 15.01 В 10
{12}
н/о н/о -13.7 -16.4 80 -25 -25 1000.4 998.7
22 15.01 В 10
{12}
н/о н/о -13.9 -15.9 85 -26 -26 1000.4 998.8
23 15.01 СВ 10
{12}
н/о н/о -13.8 -15.7 86 -25 -25 1000.4 998.8
00 16.01 СВ 12 н/о н/о -14.2 -16.2 85 -27 -27 999.9 998.3
01 16.01 СВ 14
{16}
н/о н/о -14.3 -16.4 84 -28 -28 999.6 998.0
02 16.01 СВ 15
{17}
н/о н/о -14.4 -16.3 85 -28 -28 998.9 997.2
03 16.01 СВ 17
{18}
н/о н/о -14.5 -16.3 86 -29 -29 998.4 996.7
04 16.01 СВ 15
{18}
н/о н/о -14.7 -16.6 85 -29 -29 998.5 996.9
05 16.01 СВ 16
{18}
н/о н/о -14.7 -16.6 85 -29 -29 997.6 996.0
06 16.01 СВ 18
{20}
н/о н/о -15.0 -16.9 85 -30 -30 997.1 995.4
07 16.01 СВ 17
{20}
н/о н/о -14.9 -16.6 87 -30 -30 997.2 995.6
08 16.01 СВ 18
{21}
н/о н/о -14.9 -16.6 87 -30 -30 997.1 995.5
09 16.01 СВ 18
{20}
н/о н/о -14.7 -16.4 87 -30 -30 997.4 995.8
10 16.01 В 17
{20}
н/о н/о -14.6 -16.4 86 -29 -29 997.5 995.9
11 16.01 В 18
{19}
н/о н/о -14.7 -16.6 85 -30 -30 997.5 995.9
12 16.01 В 16
{21}
н/о н/о -14.6 -16.4 86 -29 -29 997.6 995.9
13 16.01 В 17
{19}
н/о н/о -14.6 -16.4 86 -29 -29 997.8 996.1
14 16.01 В 15
{18}
н/о н/о -14.5 -16.3 86 -28 -28 998.1 996.4
15 16.01 В 16
{17}
н/о н/о -14.6 -16.5 85 -29 -29 998.3 996.6
16 16.01 В 15
{18}
н/о н/о -14.5 -16.3 86 -28 -28 998.6 996.9
17 16.01 В 16
{18}
н/о н/о -14.7 -16.4 87 -29 -29 998.8 997.2
18 16.01 В 15
{19}
н/о н/о -14.8 -16.7 85 -29 -29 999.3 997.7 -15.0 -14.4
19 16.01 В 14
{17}
н/о н/о -15.0 -16.9 85 -29 -29 999.7 998.0
20 16.01 В 14
{17}
н/о н/о -15.0 -16.9 85 -29 -29 1000.0 998.4
21 16.01 В 14
{16}
н/о н/о -15.3 -17.3 85 -29 -29 1000.6 998.9
22 16.01 В 14
{15}
н/о н/о -15.4 -17.4 85 -29 -29 1000.9 999.2
23 16.01 В 13
{15}
н/о н/о -15.4 -17.3 85 -29 -29 1001.0 999.4
00 17.01 В 13
{17}
н/о н/о -15.4 -17.4 85 -29 -29 1001.0 999.4
01 17.01 СВ 13
{15}
н/о н/о -15.7 -17.6 85 -29 -29 1001.2 999.6
02 17.01 СВ 13
{14}
н/о н/о -15.7 -17.6 85 -29 -29 1001.4 999.8
03 17.01 СВ 13
{14}
н/о н/о -16.1 -18.1 85 -30 -30 1001.3 999.7
04 17.01 В 11 н/о н/о -16.2 -18.2 85 -29 -29 1002.0 1000.4
05 17.01 В 7
{10}
н/о н/о -16.2 -18.2 85 -27 -27 1002.5 1000.8
06 17.01 В 7
{15}
н/о н/о -16.3 -18.3 84 -27 -27 1002.5 1000.8 -16.4 -14.6
07 17.01 В 8
{10}
н/о н/о -16.7 -18.8 84 -28 -28 1002.4 1000.7
08 17.01 СВ 9
{11}
н/о н/о -16.7 -18.8 84 -29 -29 1002.5 1000.8
09 17.01 СВ 8
{11}
н/о н/о -16.8 -19.0 83 -28 -28 1002.9 1001.3
10 17.01 В 7
{9}
н/о н/о -17.5 -19.8 82 -28 -28 1003.1 1001.5
11 17.01 СВ 10
{11}
н/о н/о -17.6 -19.7 84 -30 -30 1002.8 1001.1
12 17.01 В 7
{11}
н/о н/о -17.3 -19.4 84 -28 -28 1003.1 1001.4
13 17.01 В 8
{9}
н/о н/о -17.8 -20.0 83 -30 -30 1002.8 1001.2
14 17.01 СВ 6
{9}
н/о н/о -17.9 -20.0 84 -28 -28 1003.1 1001.4
15 17.01 СВ 8
{9}
н/о н/о -17.7 -20.0 82 -29 -29 1003.0 1001.3
16 17.01 СВ 8
{10}
н/о н/о -17.7 -20.2 81 -29 -29 1003.0 1001.3
17 17.01 В 7
{9}
н/о н/о -17.4 -19.9 81 -28 -28 1003.5 1001.8
18 17.01 В 7
{10}
н/о н/о -17.8 -20.3 81 -29 -29 1003.1 1001.5 -18.0 -16.3
19 17.01 СВ 8
{10}
н/о н/о -18.1 -20.4 82 -30 -30 1002.7 1001.0
20 17.01 СВ 7
{10}
н/о н/о -18.3 -20.5 83 -30 -30 1002.8 1001.2
21 17.01 СВ 8
{10}
н/о н/о -18.5 -20.8 82 -30 -30 1003.0 1001.3
22 17.01 СВ 8
{9}
н/о н/о -18.7 -21.2 81 -31 -31 опасность
обморожения
1002.9 1001.2
23 17.01 СВ 10
{11}
н/о н/о -18.8 -21.3 81 -32 -32 опасность
обморожения
1002.2 1000.5
00 18.01 СВ 10
{12}
н/о н/о -19.0 -21.6 80 -32 -32 опасность
обморожения
1002.1 1000.5
01 18.01 СВ 10
{11}
н/о н/о -19.2 -21.9 79 -33 -33 опасность
обморожения
1001.9 1000.2
02 18.01 СВ 10
{11}
н/о н/о -19.2 -21.8 80 -33 -33 опасность
обморожения
1001.9 1000.2
03 18.01 СВ 9
{10}
н/о н/о -19.2 -21.6 81 -32 -32 опасность
обморожения
1001.7 1000.0
04 18.01 СВ 10
{11}
н/о н/о -19.0 -21.6 80 -32 -32 опасность
обморожения
1001.2 999.5
05 18.01 СВ 12
{13}
н/о н/о -18.9 -21.5 80 -33 -33 опасность
обморожения
1000.4 998.7
06 18.01 СВ 12
{15}
н/о н/о -18.5 -20.8 82 -33 -33 опасность
обморожения
1000.0 998.4 -19.3 -17.8
07 18.01 СВ 11
{13}
н/о н/о -18.1 -20.4 82 -32 -32 опасность
обморожения
999.8 998.1
08 18.01 СВ 12
{14}
н/о н/о -18.0 -20.6 80 -32 -32 опасность
обморожения
1000.0 998.4
09 18.01 СВ 12
{14}
н/о н/о -18.1 -20.8 79 -32 -32 опасность
обморожения
999.9 998.3
10 18.01 СВ 11
{14}
н/о н/о -18.1 -21.1 77 -32 -32 опасность
обморожения
1000.0 998.3
11 18.01 СВ 11
{14}
н/о н/о -18.0 -21.1 77 -31 -31 опасность
обморожения
999.7 998.1
12 18.01 СВ 13
{14}
н/о н/о -18.1 -21.1 77 -32 -32 опасность
обморожения
999.2 997.6
13 18.01 СВ 14
{16}
н/о н/о -18.2 -21.1 78 -33 -33 опасность
обморожения
998.7 997.0
14 18.01 СВ 13
{16}
н/о н/о -18.3 -21.3 77 -33 -33 опасность
обморожения
998.9 997.2
15 18.01 СВ 12
{16}
н/о н/о -18.3 -21.2 78 -32 -32 опасность
обморожения
998.8 997.2
17 18.01 СВ 13
{14}
н/о н/о -18.2 -20.9 79 -33 -33 опасность
обморожения
998.6 997.0
18 18.01 СВ 13 н/о н/о -18.3 -21.0 79 -33 -33 опасность
обморожения
998.3 996.7
19 18.01 СВ 12
{14}
н/о н/о -18.5 -21.0 81 -33 -33 опасность
обморожения
998.1 996.4
20 18.01 СВ 13
{15}
н/о н/о -19.0 -21.4 81 -34 -34 опасность
обморожения
997.9 996.2
21 18.01 СВ 13
{15}
н/о н/о -19.0 -21.4 81 -34 -34 опасность
обморожения
997.9 996.2
23 18.01 СВ 12
{15}
н/о н/о -18.6 -20.9 82 -33 -33 опасность
обморожения
997.8 996.1
22 18.01 СВ 13
{15}
н/о н/о -18.9 -21.1 83 -34 -34 опасность
обморожения
997.8 996.1
00 19.01 СВ 13
{16}
н/о н/о -18.8 -21.1 82 -33 -33 опасность
обморожения
997.9 996.3
01 19.01 СВ 13
{14}
н/о н/о -18.4 -20.9 81 -33 -33 опасность
обморожения
998.1 996.4
02 19.01 СВ 12
{15}
н/о н/о -17.9 -20.4 81 -32 -32 опасность
обморожения
998.0 996.3
03 19.01 СВ 14
{16}
н/о н/о -17.9 -20.2 82 -33 -33 опасность
обморожения
997.6 995.9
05 19.01 СВ 14
{17}
н/о н/о -17.9 -20.2 82 -33 -33 опасность
обморожения
997.5 995.8
04 19.01 СВ 14
{16}
н/о н/о -17.8 -20.0 83 -32 -32 опасность
обморожения
997.4 995.7
06 19.01 СВ 13
{17}
н/о н/о -17.8 -20.1 82 -32 -32 опасность
обморожения
997.7 996.1 -19.1 -17.6
07 19.01 СВ 14
{17}
н/о н/о -17.9 -20.1 83 -33 -33 опасность
обморожения
997.6 996.0
08 19.01 СВ 15
{17}
н/о н/о -17.6 -19.8 83 -33 -33 опасность
обморожения
997.9 996.2
09 19.01 СВ 13
{16}
н/о н/о -17.4 -19.6 83 -32 -32 опасность
обморожения
998.3 996.6
11 19.01 СВ 14
{16}
н/о н/о -16.8 -19.4 80 -31 -31 опасность
обморожения
999.2 997.6
10 19.01 СВ 14
{16}
н/о н/о -17.2 -19.7 81 -32 -32 опасность
обморожения
998.9 997.2
12 19.01 СВ 11
{17}
н/о н/о -17.1 -19.2 84 -30 -30 999.7 998.1
13 19.01 СВ 12
{14}
н/о н/о -17.0 -19.4 82 -31 -31 опасность
обморожения
1000.1 998.5
14 19.01 СВ 12
{14}
н/о н/о -17.2 -19.4 83 -31 -31 опасность
обморожения
1000.7 999.1
15 19.01 СВ 12
{14}
н/о н/о -17.2 -19.7 81 -31 -31 опасность
обморожения
1001.0 999.4
17 19.01 СВ 13
{14}
н/о н/о -17.6 -19.8 83 -32 -32 опасность
обморожения
1001.8 1000.1
16 19.01 СВ 12
{14}
н/о н/о -17.4 -19.7 82 -31 -31 опасность
обморожения
1001.5 999.9
18 19.01 СВ 12
{15}
н/о н/о -17.6 -19.9 82 -31 -31 опасность
обморожения
1002.1 1000.4 -18.0 -16.8
19 19.01 СВ 10
{14}
н/о н/о -18.0 -20.1 84 -31 -31 опасность
обморожения
1002.7 1001.1
20 19.01 СВ 10
{11}
н/о н/о -18.1 -20.4 82 -31 -31 опасность
обморожения
1003.3 1001.6
21 19.01 СВ 8
{10}
н/о н/о -18.2 -20.3 84 -30 -30 1003.9 1002.3
23 19.01 СВ 8
{10}
н/о н/о -18.2 -20.8 80 -30 -30 1005.2 1003.6
22 19.01 СВ 8
{9}
н/о н/о -18.3 -20.4 84 -30 -30 1004.8 1003.1
00 20.01 СВ 7
{14}
н/о н/о -18.6 -21.1 81 -30 -30 1005.8 1004.1
01 20.01 СВ 6
{8}
н/о н/о -18.8 -21.1 82 -29 -29 1006.2 1004.5
02 20.01 СВ 6
{7}
н/о н/о -19.0 -21.4 81 -30 -30 1006.6 1004.9
03 20.01 СВ 6
{6}
н/о н/о -18.7 -21.2 81 -29 -29 1006.9 1005.2
05 20.01 СВ 6
{7}
н/о н/о -19.0 -21.3 82 -30 -30 1007.6 1005.9
04 20.01 СВ 6 н/о н/о -18.8 -21.1 82 -29 -29 1007.2 1005.5
06 20.01 СВ 5
{8}
н/о н/о -19.2 -21.3 83 -29 -29 1008.1 1006.4 -19.7 -17.6
07 20.01 СВ 5
{7}
н/о н/о -19.1 -21.3 83 -29 -29 1008.8 1007.1
08 20.01 СВ 5
{6}
н/о н/о -19.5 -21.8 82 -29 -29 1009.4 1007.7
09 20.01 СВ 6
{7}
н/о н/о -18.9 -21.2 82 -30 -30 1009.7 1008.0
11 20.01 СВ 5
{6}
н/о н/о -18.2 -20.3 84 -28 -28 1010.6 1008.9
10 20.01 СВ 6
{7}
н/о н/о -18.5 -20.7 83 -29 -29 1010.1 1008.4
12 20.01 СВ 6
{8}
н/о н/о -17.7 -20.3 80 -28 -28 1011.0 1009.3
13 20.01 СВ 5
{8}
н/о н/о -18.1 -20.4 82 -28 -28 1011.4 1009.7
14 20.01 С 8
{8}
н/о н/о -18.2 -20.7 81 -30 -30 1011.8 1010.1
15 20.01 С 8
{9}
н/о н/о -18.4 -20.9 81 -30 -30 1012.0 1010.3
17 20.01 С 6
{8}
н/о н/о -19.4 -22.1 79 -30 -30 1012.8 1011.1
16 20.01 С 8
{9}
н/о н/о -18.6 -21.5 78 -31 -31 опасность
обморожения
1012.4 1010.7
18 20.01
{9}
н/о н/о -19.3 -22.1 78 1013.0 1011.3 -19.9 -17.6
19 20.01 С 7
{8}
н/о н/о -19.6 -22.4 78 -31 -31 опасность
обморожения
1013.3 1011.6
20 20.01 С 7
{8}
н/о н/о -19.1 -22.1 77 -31 -31 опасность
обморожения
1013.7 1012.0
21 20.01 С 8
{9}
н/о н/о -18.6 -21.6 77 -31 -31 опасность
обморожения
1013.9 1012.2
23 20.01 С 8
{9}
н/о н/о -18.5 -21.4 78 -30 -30 1014.6 1013.0
22 20.01 С 7
{9}
н/о н/о -18.5 -21.4 78 -30 -30 1014.4 1012.7
00 21.01 С 8
{9}
н/о н/о -18.6 -21.2 80 -31 -31 опасность
обморожения
1014.8 1013.1
01 21.01 С 7
{9}
н/о н/о -18.6 -21.2 80 -30 -30 1015.0 1013.3
02 21.01 С 7
{8}
н/о н/о -18.6 -21.1 81 -30 -30 1015.1 1013.4
03 21.01 СВ 8
{9}
н/о н/о -18.8 -21.5 79 -31 -31 опасность
обморожения
1015.5 1013.8
05 21.01 СВ 7
{9}
н/о н/о -18.6 -21.6 77 -30 -30 1015.8 1014.1
04 21.01 СВ 7 н/о н/о -18.7 -21.6 78 -30 -30 1015.6 1013.9
06 21.01 СВ 7
{9}
н/о н/о -18.7 -21.3 80 -30 -30 1016.0 1014.3 -19.8 -18.4
07 21.01 СВ 6
{8}
н/о н/о -19.1 -21.5 81 -30 -30 1016.5 1014.8
08 21.01 СВ 8
{9}
н/о н/о -19.5 -21.9 81 -32 -32 опасность
обморожения
1016.7 1015.0
09 21.01 СВ 8
{9}
н/о н/о -19.4 -21.8 81 -32 -32 опасность
обморожения
1017.1 1015.4
11 21.01 С 6
{6}
н/о н/о -20.3 -22.2 85 -31 -31 опасность
обморожения
1017.6 1015.9
10 21.01 СВ 6
{9}
н/о н/о -20.0 -22.2 83 -31 -31 опасность
обморожения
1017.5 1015.8
12 21.01 СВ 5
{9}
н/о н/о -20.8 -22.7 85 -31 -31 опасность
обморожения
1017.7 1016.0
13 21.01 С 7
{9}
н/о н/о -19.1 -21.2 83 -31 -31 опасность
обморожения
1017.8 1016.1
14 21.01 СВ 7
{8}
н/о н/о -18.2 -20.1 85 -29 -29 1017.9 1016.2
15 21.01 СВ 6
{8}
н/о н/о -17.9 -20.0 84 -28 -28 1018.0 1016.3
17 21.01 СВ 7
{10}
н/о н/о -16.7 -19.1 82 -27 -27 1018.2 1016.5
16 21.01 СВ 8
{9}
н/о н/о -16.9 -19.3 82 -28 -28 1018.2 1016.5
18 21.01 СВ 7
{10}
н/о н/о -17.2 -19.6 82 -28 -28 1018.4 1016.7 -21.0 -16.5
19 21.01 СВ 6
{7}
н/о н/о -16.9 -19.1 83 -27 -27 1018.7 1017.0
20 21.01 СВ 8
{9}
н/о н/о -17.9 -20.2 82 -30 -30 1018.7 1017.0
21 21.01 СВ 7
{9}
н/о н/о -17.8 -19.9 84 -29 -29 1019.1 1017.4
23 21.01 СВ 8
{10}
н/о н/о -16.1 -19.6 74 -27 -27 1019.2 1017.5
22 21.01 СВ 7
{10}
н/о н/о -16.3 -18.8 81 -27 -27 1019.2 1017.5
00 22.01 СВ 7
{10}
н/о н/о -16.2 -19.5 76 -27 -27 1019.3 1017.7
01 22.01 СВ 8
{9}
н/о н/о -16.1 -18.7 80 -27 -27 1019.5 1017.8
02 22.01 СВ 7
{9}
н/о н/о -15.7 -18.3 80 -26 -26 1019.8 1018.1
03 22.01 СВ 6
{8}
н/о н/о -15.5 -17.9 82 -25 -25 1019.7 1018.1
05 22.01 СВ 8
{9}
н/о н/о -15.3 -18.1 79 -26 -26 1020.3 1018.6
04 22.01 СВ 7
{9}
н/о н/о -15.4 -18.6 76 -26 -26 1020.0 1018.3
06 22.01 СВ 8
{10}
н/о н/о -15.2 -18.1 78 -26 -26 1020.5 1018.8 -18.5 -15.1
07 22.01 СВ 8
{10}
н/о н/о -15.3 -17.4 84 -26 -26 1020.7 1019.0
08 22.01 СВ 8
{11}
н/о н/о -15.6 -17.7 84 -27 -27 1021.1 1019.4
09 22.01 СВ 7
{9}
н/о н/о -15.5 -18.1 80 -26 -26 1021.6 1019.9
10 22.01 СВ 8
{9}
н/о н/о -16.7 -19.3 80 -28 -28 1022.0 1020.3

 

Местоположение метеостанции Конгсёйа (Норвегия): широта 78.93 долгота 28.89 высота над уровнем моря 20 м.

В архиве по умолчанию представлена погода на Конгсёйа за последнюю неделю. Архивные данные за месяц целиком и за предыдущие месяцы, начиная с января 2011 года, Вы можете получить, выбрав интересующий диапазон дат из раскрывающегося списка и нажав кнопку "Ввод!".


*Определитесь, кто Вы:
робот инопланетянин человек

Внимание! Время в таблицах - всемирное. Для получения местного времени необходимо прибавить поправку, которая равна 1 ч.

Смотрите также архив погоды в соседних городах и на ближайших метеорологических станциях:

Погода на Острове Белый (Норвегия) (137 км)
Погода на Эдже (Норвегия) (153 км)
Погода на Острове Карла XII (Норвегия) (206 км)
Погода в Пирамиде (Норвегия) (272 км)
Погода в Хопене (Норвегия) (284 км)
Погода на Верлегенхукен (Норвегия) (284 км)
Погода в Свальбард аэропорту (Норвегия) (303 км)
Погода в Баренцбурге (Шпицберген, Россия) (337 км)
Погода на Акселойа (Норвегия) (346 км)
Погода в Ню-Олесунн (Норвегия) (361 км)

Пояснения к столбцам:

Ветер - указаны скорость ветра в м/с - средняя за 10 мин, порывы в срок и между сроками (в фигурных скобках) и направление, откуда дует ветер: С - северный, СВ - северо-восточный, В - восточный, ЮВ - юго-восточный, Ю - южный, ЮЗ - юго-западный, З - западный, СЗ - северо-западный.
Видимость - горизонтальная дальность видимости в метрах или километрах. При видимости от 1 до 10 км при отсутствии осадков обычно наблюдается дымка, при ухудшении видимости до 1 км и менее - туман. В сухую погоду видимость может ухудшаться дымом, пылью или мглою.
Явления - указаны атмосферные явления, наблюдавшиеся в срок или в последний час перед сроком; фигурными скобками обозначены явления, наблюдавшиеся между сроками (за 1-3 часа до срока); квадратными скобками обозначены град или гололедные отложения с указанием их диаметра в мм.
Облачность - указаны через наклонную черту общая и нижняя облачность в баллах и высота нижней границы облаков в метрах; квадратными скобками обозначены формы облаков: Ci - перистые, Cs - перисто-слоистые, Cc - перисто-кучевые, Ac - высококучевые, As - высокослоистые, Sc - слоисто-кучевые, Ns - слоисто-дождевые, Cu - кучевые, Cb - кучево-дождевые. Подробнее классификацию облаков см. в Атласе облаков (PDF).
T - Температура воздуха - температура, измеренная на высоте 2 м над землей.
Td - Температура точки росы - температура, при понижении до которой содержащийся в воздухе водяной пар достигнет насыщения.
f - Относительная влажность воздуха - влажноcть воздуха, измеренная на высоте 2 м над землей.
Te - Эффективная температура - температура, которую ощущает одетый по сезону человек в тени. Характеристика душности погоды. При расчете учитывается влияние влажности воздуха и скорости ветра на теплоощущения человека.
Tes - Эффективная температура на солнце - температура, которую ощущает человек, с поправкой на солнечный нагрев. Характеристика знойности погоды. Зависит от высоты солнца над горизонтом, облачности и скорости ветра. Ночью, в пасмурную погоду, а также при ветре 12 м/с и более поправка равна нулю.
P - Атмосферное давление - приведенное к уровню моря атмосферное давление.
Po - Атмосферное давление - измеренное на уровне метеостанции атмосферное давление.
Tmin - Минимальная температура - минимум температуры воздуха на высоте 2 м над землей.
Tmax - Максимальная температура - максимум температуры воздуха на высоте 2 м над землей.
R - Количество осадков - Количество выпавших осадков за период времени, мм. При наведении курсора мыши на число - период времени, за который выпало указанное количество осадков.
R24 - Количество осадков - Количество выпавших осадков за 24 часа, мм.
S - Снежный покров - Высота снежного покрова, см. При наведении курсора мыши на число - состояние снежного покрова и степень покрытия местности в баллах.